COSMOS 886 DEB

基本信息
目录编号:
9649
目录名称:
COSMOS 886 DEB
国际标识:
1976-126F
轨道中心:
EARTH
物体状态:
在轨
发射日期:
1976-12-27 UTC
轨道信息
数据来源: 国际轨道数据
星历时间: 2026-09-10T04:52:29+0800
半长轴: 7752.912km
偏心率: 0.0919091
轨道倾角: 65.929°
近地点辐角: 244.214°
升交点赤经: 106.689°
平近点角: 106.130°
近地点: 662.211km
远地点: 2087.339km
周期: 113.229分钟
每日圈数: 12.717611
详细信息
发射场:
TTMTR
轨道高度:
LEO
数据来源:
AOE Integration Group
参考系:
TEME
时间系统:
UTC
历元类型:
SGP4
2D轨道图
3D轨道图
轨道高度分析图
轨道倾角分析图
轨道综合分析图
查看轨道综合分析图